Weather History for Sioux City, IA

Change the Weather History Date:

Friday, November 23, 2012

  Actual Average Record
Temperature  
Mean Temperature 25 °F 32 °F  
Max Temperature 36 °F 42 °F 62 °F (1902)
Min Temperature 14 °F 21 °F -4 °F (1898)
Degree Days  
Heating Degree Days 40 34  
Month to date heating degree days 541 626  
Since 1 July heating degree days 1222 1226  
Cooling Degree Days 0 0  
Month to date cooling degree days 0 0  
Year to date cooling degree days 1249 869  
Moisture  
Dew Point 11 °F    
Average Humidity 58    
Maximum Humidity 74    
Minimum Humidity 39    
Precipitation  
Precipitation T in 0.05 in 1.93 in (1905)
Month to date precipitation 1.07 1.03  
Year to date precipitation 22.45 26.66  
Snow  
Snow T in 0.10 in 1.50 in (1999)
Month to date snowfall T 2.8  
Since 1 July snowfall 0.1 3.8  
Since 1 September snowfall 0.1 3.8  
Snow Depth 0.00 in    
Sea Level Pressure  
Sea Level Pressure 30.46 in    
Wind  
Wind Speed 17 mph (NW)    
Max Wind Speed 40 mph    
Max Gust Speed 51 mph    
Visibility 10 miles    
Events Snow    
T = Trace of Precipitation, MM = Missing Value Source: NWS Daily Summary

Daily Weather History Graph

Daily Weather History Graph

Search for Another Location

Airport:

Trip Planner

Search our weather history database for the weather conditions in past years. The results will help you decide how hot, cold, wet, or windy it might be!

Date:

Astronomy

Nov. 23, 2012 Rise Set
Actual Time 7:26 AM CST 4:57 PM CST
Civil Twilight 6:55 AM CST 5:28 PM CST
Nautical Twilight 6:21 AM CST 6:02 PM CST
Astronomical Twilight 5:47 AM CST 6:36 PM CST
Moon 2:16 PM CST (11/23) 2:42 AM CST (11/23)
Length of Visible Light 10h 32m
Length of Day
9h 30m
Waxing Gibbous, 80% of the Moon is Illuminated
Nov 23
Waxing Gibbous
Nov 28
Full
Dec 6
Last Quarter
Dec 13
New
Dec 19
First Quarter

Hourly Weather History & Observations

Time (CST) Temp. Windchill Dew Point Humidity Pressure Visibility Wind Dir Wind Speed Gust Speed Precip Events Conditions
12:52 AM 30.0 °F 14.2 °F 17.1 °F 59% 30.28 in 9.0 mi NNW 33.4 mph 43.7 mph 0.00 in Snow Light Snow
1:52 AM 28.9 °F 14.0 °F 15.1 °F 56% 30.33 in 10.0 mi NNW 27.6 mph 38.0 mph 0.00 in   Overcast
2:52 AM 27.0 °F 10.8 °F 15.1 °F 61% 30.37 in 10.0 mi NW 29.9 mph 40.3 mph N/A   Overcast
3:52 AM 25.0 °F 7.8 °F 12.9 °F 60% 30.38 in 9.0 mi NW 31.1 mph 41.4 mph 0.00 in Snow Light Snow
4:52 AM 23.0 °F 8.7 °F 12.9 °F 65% 30.41 in 10.0 mi NW 18.4 mph 36.8 mph 0.00 in   Clear
5:52 AM 21.9 °F 6.5 °F 12.0 °F 66% 30.43 in 10.0 mi NW 20.7 mph 29.9 mph N/A   Clear
6:52 AM 21.0 °F 5.0 °F 12.0 °F 68% 30.45 in 10.0 mi NW 21.9 mph 32.2 mph N/A   Partly Cloudy
7:52 AM 21.0 °F 4.3 °F 12.0 °F 68% 30.47 in 10.0 mi NNW 24.2 mph 35.7 mph N/A   Clear
8:52 AM 21.9 °F 5.5 °F 12.9 °F 68% 30.51 in 10.0 mi NW 24.2 mph 34.5 mph N/A   Scattered Clouds
9:15 AM 21.2 °F 4.2 °F 12.2 °F 68% 30.47 in 10.0 mi NNW 25.3 mph 33.4 mph N/A   Mostly Cloudy
9:52 AM 23.0 °F 7.2 °F 12.0 °F 63% 30.53 in 10.0 mi NNW 23.0 mph 31.1 mph N/A   Mostly Cloudy
10:43 AM 24.8 °F 9.3 °F 12.2 °F 59% 30.50 in 10.0 mi NW 24.2 mph 31.1 mph N/A   Partly Cloudy
10:52 AM 25.0 °F 10.2 °F 12.0 °F 58% 30.55 in 10.0 mi NW 21.9 mph 33.4 mph N/A   Partly Cloudy
11:52 AM 27.0 °F 13.9 °F 12.0 °F 53% 30.53 in 10.0 mi NNW 18.4 mph - N/A   Clear
12:52 PM 28.9 °F 15.1 °F 12.0 °F 49% 30.51 in 10.0 mi NW 23.0 mph 27.6 mph N/A   Clear
1:52 PM 30.0 °F 16.9 °F 10.9 °F 45% 30.50 in 10.0 mi NW 21.9 mph 28.8 mph N/A   Clear
2:52 PM 30.9 °F 18.1 °F 10.0 °F 42% 30.49 in 10.0 mi NNW 21.9 mph - N/A   Clear
3:52 PM 30.2 °F 17.8 °F 10.4 °F 44% 30.45 in 10.0 mi NNW 19.6 mph 25.3 mph N/A   Clear
4:52 PM 28.0 °F 19.3 °F 10.0 °F 47% 30.50 in 10.0 mi NW 9.2 mph - N/A   Clear
5:52 PM 23.0 °F 14.7 °F 9.0 °F 55% 30.51 in 10.0 mi NW 6.9 mph - N/A   Clear
6:52 PM 21.9 °F 14.5 °F 9.0 °F 58% 30.49 in 10.0 mi NNW 5.8 mph - N/A   Clear
7:52 PM 21.0 °F 16.2 °F 10.0 °F 63% 30.50 in 10.0 mi WNW 3.5 mph - N/A   Clear
8:52 PM 16.0 °F 10.4 °F 8.1 °F 71% 30.49 in 10.0 mi West 3.5 mph - N/A   Clear
9:52 PM 16.0 °F - 9.0 °F 74% 30.48 in 9.0 mi Calm Calm - N/A   Clear
10:52 PM 19.0 °F - 9.0 °F 65% 30.45 in 10.0 mi Calm Calm - N/A   Clear
11:52 PM 17.1 °F - 9.0 °F 71% 30.43 in 10.0 mi Calm Calm - N/A   Clear